Regional Weather Roundup
Issued by NWS Wakefield, VA

Home | Current Version | Previous Version | Text Only | Print | Product List | Glossary Off
Versions: 1 2 3 4 5 6 7 8 9 10 11 12 13 14 15 16 17 18 19 20 21 22 23 24 25 26 27 28 29 30 31 32 33 34 35 36 37 38 39 40 41 42 43 44 45 46 47 48 49 50

000
ASUS41 KAKQ 021215
RWRAKQ

REGIONAL WEATHER ROUNDUP
NATIONAL WEATHER SERVICE WAKEFIELD VA
800 AM EDT SAT MAY 02 2015

Note: "fair" indicates few or no clouds below 12,000 feet with no
significant weather and/or obstructions to visibility. * = Denotes
station may not report precipitation (e.g., rain,snow,etc.),
thunder or fog.

VAZ042-051-052>054-056-021300-
NORTHERN VIRGINIA

CITY           SKY/WX    TMP DP  RH WIND       PRES   REMARKS
WASH NATIONAL  PTSUNNY   54  44  69 S5        30.02R
DULLES         PTSUNNY   52  49  89 CALM      30.02R
FORT BELVOIR   CLOUDY    50  48  92 CALM      30.02R
QUANTICO       CLOUDY    52  46  80 CALM      30.03R
FREDERICKSBRG* CLOUDY    52  51  95 CALM      30.01S
STAFFORD*      CLOUDY    49  32  52 CALM      30.06R
WARRENTON      CLOUDY    53  51  94 CALM      30.02R
CULPEPER*      NOT AVBL
MANASSAS*      CLOUDY    52  52 100 CALM      30.02R
LEESBURG*      CLOUDY    55  54  94 CALM      30.03R
WINCHESTER     SUNNY     55  50  82 CALM      30.03R
FRONT ROYAL*   FAIR      54  50  87 S5        30.03R
LURAY*         FOG       50  50 100 CALM      30.05R VSB 1/4
$$

VAZ048-049-060>072-079>083-021300-
CENTRAL AND SOUTH CENTRAL VIRGINIA

CITY           SKY/WX    TMP DP  RH WIND       PRES   REMARKS
RICHMOND       PTSUNNY   53  44  71 CALM      30.02R
CHESTERFIELD*  PTSUNNY   52  39  62 CALM      30.03R
PETERSBURG*    CLOUDY    51  48  89 CALM      30.03R
HANOVER        CLOUDY    50  48  93 CALM      30.03R
TAPPAHANNOCK*  CLOUDY    48  46  90 CALM      30.02R
QUINTON*       FAIR      46  45  95 CALM      30.02R
CHARLOTTSVILLE CLOUDY    52  49  89 CALM      30.02R
GORDONSVILLE*  PTSUNNY   51  51  98 CALM      30.02R
ORANGE*        CLOUDY    54  52  94 CALM      30.03R
LOUISA*        CLOUDY    54  52  94 CALM      30.01R
BUMPASS*       CLOUDY    50  48  93 CALM      30.02R
FARMVILLE*     SUNNY     53  53 100 CALM      30.01R
CREWE*         FAIR      47  46  95 CALM      30.01R
FORT PICKETT*  CLOUDY    50  50  98 CALM      30.01R
CHASE CITY*    FAIR      53  53 100 NW5       30.02R
CLARKSVILLE*   FAIR      50  50 100 NW6       30.02R
SOUTH HILL*    SUNNY     51  50  96 N3        30.07R
LAWRENCEVILLE* PTSUNNY   48  48 100 CALM      30.01R VSB 3/4
EMPORIA*       SUNNY     46  46 100 CALM      30.03R
$$

VAZ088>098-021300-
SOUTHEAST VIRGINIA

CITY           SKY/WX    TMP DP  RH WIND       PRES   REMARKS
NORFOLK        MOSUNNY   55  45  68 N8        29.99R
VIRGINIA BEACH MOSUNNY   55  44  66 N10       29.98R
NORFOLK NAVAL  MOSUNNY   57  47  69 N9        30.01R
WEST POINT*    SUNNY     51  49  92 CALM      30.03R
SALUDA*        FAIR      52  46  79 NW6       30.00S
NEWPORT NEWS   SUNNY     54  46  74 VRB5      30.00R
LANGLEY AFB    SUNNY     53  47  79 N5        29.98S
FORT EUSTIS    SUNNY     51  51 100 N6        29.99R
WILLIAMSBURG*  SUNNY     48  48 100 CALM      30.01S
HR EXEC AP*    FAIR      48  46  93 CALM      30.01R
FRANKLIN*      SUNNY     48  47  97 CALM      30.02R
WAKEFIELD      SUNNY     50  47  89 CALM      30.02R
$$

VAZ020-022-025-037-045-021300-
WEST CENTRAL AND SOUTHWEST VIRGINIA

CITY           SKY/WX    TMP DP  RH WIND       PRES   REMARKS
STAUNTON*      FOG       44  43  97 CALM      30.07R VSB 1/2
WAYNESBORO*    FAIR      44  44 100 S3        30.05R
HOT SPRINGS VA MOSUNNY   46  44  93 NW8       30.07R
LYNCHBURG      SUNNY     51  50  96 E3        30.05R
DANVILLE       SUNNY     53  48  83 W6        30.04R
SOUTH BOSTON*  FAIR      49  48  95 CALM      30.03R
MARTINSVILLE   SUNNY     55  48  78 NW12      30.08S
ROANOKE        PTSUNNY   53  46  77 W7        30.09R
BLACKSBURG     PTSUNNY   46  43  90 CALM      30.13R
DUBLIN*        SUNNY     51  47  87 SW5       30.12R
MARION*        FOG       43  42  95 W9        30.16R VSB<1/4
HILLSVILLE*    SUNNY     47  42  82 NW13G18   30.11R
RICHLANDS*     FAIR      45  40  85 CALM      30.14R
WISE*          SUNNY     48  46  93 W3        30.16R
ABINGDON*      FOG       44  44 100 CALM      30.16R VSB 3/4
$$

MDZ021>025-VAZ099-100-021300-
SOUTHERN MARYLAND AND THE DELMARVA PENINSULA

CITY           SKY/WX    TMP DP  RH WIND       PRES   REMARKS
PATUXENT RIVER MOSUNNY   51  46  83 NW5       30.01R
BAY BRIDGE APT   N/A    N/A N/A N/A CALM      30.02R
LEONARDTOWN    SUNNY     48  45  87 CALM      30.02R
DOVER          CLOUDY    49  48  97 N6        29.97R
GEORGETOWN     CLOUDY    47  43  86 N5        30.00R
EASTON         MOSUNNY   45  45 100 CALM      30.05R
CAMBRIDGE      SUNNY     48  45  87 N3        30.00R
SALISBURY      CLOUDY    48  43  82 N6        29.99R
OCEAN CITY     CLOUDY    52  42  69 NE14      29.99R
WALLOPS ISLAND CLOUDY    48  44  86 N7        30.00R
ACCOMACK*      CLOUDY    50  28  43 N5        29.99R
$$

NCZ012>017-030>032-021300-
NORTH CENTRAL AND EASTERN NORTH CAROLINA

CITY           SKY/WX    TMP DP  RH WIND       PRES   REMARKS
ROANOKE RAPIDS FAIR      46  46 100 CALM      30.02R
RALEIGH        SUNNY     50  49  96 CALM      30.03R
ELIZABETH CITY MOSUNNY   52  46  80 NW10      30.00R
AHOSKIE*       SUNNY     47  46  96 CALM      30.02R
EDENTON*       SUNNY     51  46  84 N7        30.00R
CURRITUCK*     MOSUNNY   48  43  81 NW5       30.00R
KILL DEVIL HLS PTSUNNY   53  43  69 N10G17    29.96R
MANTEO         PTSUNNY   54  44  68 N10G18    29.97R
CAPE HATTERAS  SUNNY     52  43  71 N9G22     29.95R
TARBORO*       FAIR      48  47  97 CALM      30.03R
GOLDSBORO      SUNNY     52  51  95 NW3       30.00R
WASHINGTON     SUNNY     50  47  92 CALM      30.01S
GREENVILLE     SUNNY     50  50 100 CALM      30.04R
NEW BERN       SUNNY     53  48  83 N3        30.02R
WILMINGTON     SUNNY     54  50  86 W8        30.03R
$$

VAZ048-021300-
ELSEWHERE

CITY           SKY/WX    TMP DP  RH WIND       PRES   REMARKS
HARRISBURG PA  MOSUNNY   58  47  66 NW5       30.00R
BALTIMORE      MOSUNNY   51  45  79 CALM      30.01R
ANNAPOLIS      SUNNY     52  46  80 N3        30.01R
ANDREWS AFB    PTSUNNY   52  44  74 SW2       30.01R
PHILADELPHIA   PTSUNNY   52  42  69 CALM      30.02R
HENDERSON NC   SUNNY     53  48  83 NW7       30.02R
GREENSBORO     MOSUNNY   54  47  77 NW7       30.05R
ROCKY MOUNT    SUNNY     52  50  93 N3        30.02R
$$

VAZ100-021300-
MARINE

STATION/POSITION TIME  TEMP    WIND        PRES    WAVE   SWELL
                       AIR SEA DIR/SP/G            HT/PER HT/PER
                 (UTC) (F)     (DEG/KT/KT) (MB)    (FT/S) (FT/S)
BRANDYWINE LGT   1100           30/ 13/ 14 1015.4R
CAPE MAY NJ      1100   51 57   20/  1/  3 1014.9R
LEWES DE         1100   50 53   10/ 11/ 12 1015.1R
15NM E FENWICK I 1150   47 47              1014.9R   7/ 8
OCEAN-CITY-INLET 1100   50 52   10/ 11/ 13 1014.5R
WACHAPREAGUE VA  1100   48 54  350/  5/  8 1014.9R
THOMAS POINT MD  1200   51 56  350/  2/  2 1017.2R
GOOSES REEF MD   1200   53 55  360/  4/  6   N/A     0
COVE POINT MD    1100   49     330/  3/  4 1016.3R
SOLOMONS ISLAND  1100      58                N/A
BISHOPS HEAD MD  1100   48 55  360/  3/  5 1015.2R
PINEY POINT MD   1100          350/  3/  4   N/A
CAMBRIDGE MD     1100   48 60  350/  4/  6 1015.6R
LEWISETTA VA     1100   50 59              1015.4R
RAPPAHANNOCK LGT 1100           20/ 14/ 16 1015.6R
YORK RVR RNG VA  1100   53     350/ 10/ 11 1014.7R
YORKTOWN VA      1100   50 58  360/  6/  7 1015.2R
JAMESTOWN VA     1200   50 62  330/  4/  6 1015.2R
DOMINION TERM VA 1100   49      10/  7/  8 1015.4R
KIPTOPEKE VA     1100      60   20/  8/ 10   N/A
CHES BAY BRIDGE  1100   54 57  340/ 14/ 16 1014.6R
CAPE HENRY VA    1100   53     350/ 17/ 19 1013.5R
CHESAPEAKE LGHT  1100   51     360/ 17/ 19 1015.0R
WILLOUBY STN VA  1100   51     350/  9/ 10 1015.8R
S CRANEY ISL VA  1100          360/ 10/ 12 1015.2R
CAPE HENRY BUOY  1128      51                N/A     6/10   2/11
1ST LANDING BUOY 1200      56              1015.1R
CAPE CHARLES BUO 1126      54                N/A     6/ 9   5/ 9
OFFSHORE WE BUOY 1111      50                N/A     8/ 9   7/ 9
64NM E OF VA BCH 1150   53 61  360/ 25/ 29 1012.3R  10/10   7/10
DUCK PIER NC     1100   52 55  330/ 14/ 16 1013.1R
44056 DUCK FRF   1111      54                N/A     8/11   3/11
OREGON INLET NC  1100   52 54  340/ 14/ 23 1013.4R
HATTERAS NC      1100   56 58  340/ 23/ 26 1013.0R
DIAMOND SHLS NC  1150   55 58  350/ 25/ 29 1012.7R   9/15   7/15
CAPE LOOKOUT NC  1200   54     340/ 15/ 17 1015.2R
$$


USA.gov is the U.S. government's official web portal to all federal, state and local government web resources and services.